Find Gals 2

NORAD ID: 23717 Int'l Des: 1995-063 Owner: INFK/LAND Country: RU operational
HEOCIRCULAR

Live-Position

3D-Globus wird geladen...

Über Gals 2

Beschreibung wird geladen...

Nächste Überflüge

Passes for default location (London). Set your location on the main map for personalized predictions.

Höhenverlauf

Loading altitude history...

Zweizeiliger Elementsatz

1 23717U 95063A 26134.18664242 .00000109 00000-0 00000+0 0 9991
2 23717 14.4729 2.8585 0009096 337.6307 10.3877 0.99879146111282
Epoch: 14. Mai 2026 • Age: 12 hours

Aktueller Status

Höhe 35933.4 km
Geschwindigkeit 3.07 km/s
Subsatellitenpunkt 1.92°N, 51.25°E
Startdatum 17. Nov. 1995
Alter 30.4 years
Typ other

Technische Details

Klassifizierung Payload
Masse 2600.00 kg
Trockenmasse 2400.00 kg
Gesamtmasse 2600.00 kg
Länge 6.60 m
Durchmesser 4.10 m
Spannweite 10.00 m
Form Cyl + 2 Pan
Hersteller NPOPMR
Bus-Typ Gals
Phasenstatus Unknown Active Status
Besitzer/Staat INFK/LAND/RU

Most Searched